Retour au catalogue

FREGAT DEB

LostUNKNOWN
NORAD 46323·DEBRIS·🇷🇺 Russia

Lancé Jul 18, 2011 depuis Baikonur Cosmodrome

Loading…

Prochains Passages (prochaines 24 heures)

TLE

PériméSource: Space-Track

Époque: Oct 24, 2020, 19:41 UTC

1 46323U 11037LB  20298.82032627 -.00003905  00000-0 -33760-1 0  9990
2 46323  52.0378 145.1342 2039781 205.8605 142.4537  9.70297652  3096

Suivez FREGAT DEB en temps réel avec AllMySat

Download on the App Store